Skip Page Navigation
NASA JPL Caltech
NASA Logo - Jet Propulsion Laboratory + View the NASA Portal
+ Center for Near-Earth Object Studies
JPL Home Earth Solar System Stars & Galaxies Technology
JPL Solar System Dynamics
BODIES ORBITS EPHEMERIDES TOOLS PHYSICAL DATA DISCOVERY FAQ SITE MAP
IMPORTANT: The SSD Announcement email list is now available. Major changes are coming in the near future, including possible hostname and/or URL changes. To be notified of such changes, subscribe to this email list.

Please visit this page for more details.


JPL Small-Body Database Browser
Search: [ help ]  
472232 (2014 FW71)
Classification: TransNeptunian Object          SPK-ID: 2472232
Ephemeris | Orbit Diagram | Orbital Elements | Mission Design | Physical Parameters | Discovery Circumstances ]

[ hide orbit diagram ]

For accurate long-term ephemerides, please instead use our Horizons system.This orbit viewer was implemented using two-body methods, and hence should not be used for determining accurate long-term trajectories (over several years or decades) or planetary encounter circumstances.


[ revert to old Java-based viewer ]

Orbital Elements at Epoch 2458600.5 (2019-Apr-27.0) TDB
Reference: JPL 10 (heliocentric ecliptic J2000)
 Element Value Uncertainty (1-sigma)   Units 
e .06165682087645614 0.00027477  
a 43.17148932279109 0.00355 au
q 40.50967253864592 0.0095802 au
i 13.88238949551559 0.00023756 deg
node 247.6788064642819 0.0014583 deg
peri 32.99129844581385 0.043725 deg
M 284.0934114761693 0.063132 deg
tp 2480446.450543631101
(2079-Feb-16.95054363)
15.483 TDB
period 103608.1629888839
283.66
12.779
0.03499
d
yr
n .003474629697262601 4.2857e-07 deg/d
Q 45.83330610693626 0.0037688 au
  Orbit Determination Parameters
   # obs. used (total)      86  
   data-arc span      1449 days (3.97 yr)  
   first obs. used      2012-04-13  
   last obs. used      2016-04-01  
   planetary ephem.      DE431  
   SB-pert. ephem.      SB431-N16  
   condition code      3  
   norm. resid. RMS      .44456  
   source      ORB  
   producer      Otto Matic  
   solution date      2017-Apr-09 07:13:49  

Additional Information
 Earth MOID = 39.5014 au 
 Jupiter MOID = 35.3109 au 
 T_jup = 5.702 
[ show covariance matrix ]

Ephemeris | Orbit Diagram | Orbital Elements | Mission Design | Physical Parameters | Discovery Circumstances ]

Physical Parameter Table
Parameter Symbol Value Units Sigma Reference Notes
absolute magnitude H 5.8   n/a MPO383597  

472232 (2014 FW71)          Discovered 2014-Mar-27 by Cerro Tololo at Cerro Tololo
Reference: Last Updated: 2016-08-22
Ephemeris | Orbit Diagram | Orbital Elements | Mission Design | Physical Parameters | Discovery Circumstances ]
ABOUT SSD CREDITS/AWARDS PRIVACY/COPYRIGHT GLOSSARY LINKS
FirstGov 2019-Dec-10 19:32 UT
(server date/time)  
NASA Home Page
Site Manager:   Ryan S. Park
Webmaster  Alan B. Chamberlin